Terminal Aerodrome Forecast
Issued by NWS

Home | Current Version | Previous Version | Text Only | Print | Product List | Glossary On
Versions: 1 2 3 4 5 6 7 8 9 10 11 12 13 14 15 16 17 18 19 20 21 22 23 24 25 26 27 28
000
FTUS44 KOUN 021121
TAFLAW
TAF
KLAW 021121Z 0212/0312 19011KT P6SM SCT150
     FM021500 29014KT P6SM FEW150
     FM021700 33014G20KT P6SM BKN040
     FM030100 33008KT P6SM SKC=

USA.gov is the U.S. government's official web portal to all federal, state and local government web resources and services.